| time (UTC) | temp C | wind direction | speed KPH | gust KPH | rain 1hr cm | rain 24hr cm | rain mn cm | humidity % | barometer mb |
| 20260506203730 | 13 | 40 | 4.8 | 12.9 | 0.00 | 2.44 | 0.48 | 56 | 1011.3 |
| 20260506200732 | 13 | 244 | 1.6 | 6.4 | 0.00 | 2.44 | 0.48 | 63 | 1011.1 |
| 20260506193750 | 13 | 325 | 4.8 | 9.7 | 0.00 | 2.44 | 0.48 | 58 | 1011.4 |
| 20260506190737 | 14 | 257 | 4.8 | 9.7 | 0.00 | 2.44 | 0.48 | 58 | 1010.9 |
| 20260506183759 | 14 | 246 | 4.8 | 12.9 | 0.00 | 2.44 | 0.48 | 58 | 1011.1 |
| 20260506180732 | 14 | 290 | 1.6 | 9.7 | 0.00 | 2.44 | 0.48 | 57 | 1011.2 |
| 20260506173721 | 15 | 28 | 1.6 | 6.4 | 0.00 | 2.44 | 0.48 | 62 | 1011.3 |
| 20260506170734 | 13 | 311 | 1.6 | 9.7 | 0.00 | 2.44 | 0.48 | 67 | 1011.2 |
| 20260506163728 | 13 | 285 | 1.6 | 9.7 | 0.00 | 2.44 | 0.48 | 66 | 1011.4 |
| 20260506160727 | 12 | 284 | 3.2 | 9.7 | 0.00 | 2.44 | 0.48 | 69 | 1011.2 |
| 20260506153742 | 11 | 334 | 3.2 | 9.7 | 0.00 | 2.44 | 0.48 | 72 | 1010.8 |
| 20260506150724 | 11 | 360 | 3.2 | 9.7 | 0.00 | 2.44 | 0.48 | 74 | 1010.4 |
| 20260506143732 | 10 | 298 | 3.2 | 11.3 | 0.00 | 2.44 | 0.48 | 76 | 1010.5 |
| 20260506140730 | 8 | 290 | 526.3 | 526.3 | 0.00 | 0.00 | 0.48 | 88 | 1009.8 |
| 20260506130733 | 7 | 221 | 3.2 | 6.4 | 0.00 | 2.44 | 0.48 | 97 | 1009.7 |
| 20260506003726 | 15 | 198 | 1.6 | 6.4 | 0.20 | 1.14 | 1.14 | 99 | 1006.3 |
| 20260506000728 | 15 | 209 | 0.0 | 4.8 | 0.25 | 1.07 | 1.07 | 99 | 1006.2 |
| 20260505233729 | 15 | 226 | 1.6 | 4.8 | 0.15 | 0.94 | 0.94 | 98 | 1006.3 |
| 20260505230732 | 15 | 213 | 1.6 | 4.8 | 0.10 | 0.81 | 0.81 | 98 | 1006.7 |
| 20260505223722 | 15 | 230 | 0.0 | 4.8 | 0.23 | 0.79 | 0.79 | 98 | 1006.8 |
| 20260505220726 | 15 | 206 | 1.6 | 8.0 | 0.64 | 0.71 | 0.71 | 96 | 1007.0 |
| 20260505213801 | 17 | 254 | 4.8 | 41.8 | 0.48 | 0.56 | 0.56 | 84 | 1006.5 |
| 20260505210740 | 20 | 157 | 8.0 | 16.1 | 0.00 | 0.08 | 0.08 | 66 | 1005.5 |